KD7DVD-1 Weather Reports


Display with metric or nautical units.
time (UTC)temp
F
wind
direction
speed
MPH
gust
MPH
rain 1hr
in
rain 24hr
in
rain mn
in
humidity
%
barometer
mb
20260506043016 57 0.0 0.0 0.00 0.00 0.00 84 1015.2
20260506040017 59 0.0 0.0 0.00 0.00 0.00 82 1015.1
20260506033015 60 0.0 0.0 0.00 0.00 0.00 79 1014.6
20260506030015 62 0.0 1.0 0.00 0.00 0.00 75 1014.5
20260506023015 64 0.0 1.0 0.00 0.00 0.00 72 1014.4
20260506020015 69 0.0 2.0 0.00 0.00 0.00 65 1014.4
20260506013015 69 0.0 2.0 0.00 0.00 0.00 64 1014.4
20260506010017 69 0.0 2.0 0.00 0.00 0.00 63 1014.5
20260506003018 71 0.0 3.0 0.00 0.00 0.00 59 1014.7
20260506000017 69 0.0 3.0 0.00 0.00 0.00 63 1014.9
20260505233017 67 0.0 5.0 0.00 0.00 0.00 67 1015.3
20260505230017 66 0.0 5.0 0.00 0.00 0.00 67 1015.4
20260505223017 64 0.0 5.0 0.00 0.00 0.00 70 1015.6
20260505220017 63 270 1.0 6.0 0.00 0.00 0.00 71 1015.9
20260505213017 63 0.0 3.0 0.00 0.00 0.00 73 1016.0
20260505210017 62 270 1.0 6.0 0.00 0.00 0.00 74 1016.0
20260505203016 61 270 1.0 5.0 0.00 0.00 0.00 75 1016.2
20260505200016 61 0.0 2.0 0.00 0.00 0.00 76 1016.1
20260505193016 60 0.0 1.0 0.00 0.00 0.00 78 1016.2
20260505190016 59 0.0 3.0 0.00 0.00 0.00 78 1016.1
20260505183016 58 0.0 4.0 0.00 0.00 0.00 80 1016.0
20260505180016 58 0.0 3.0 0.00 0.00 0.00 80 1015.9
20260505173016 57 0.0 4.0 0.00 0.00 0.00 81 1016.0
20260505170016 57 0.0 2.0 0.00 0.00 0.00 82 1015.7
20260505163016 57 0.0 2.0 0.00 0.00 0.00 83 1015.7
20260505153016 57 0.0 3.0 0.00 0.00 0.00 83 1015.4
20260505123015 56 0.0 2.0 0.00 0.00 0.00 84 1013.9
20260505120015 56 0.0 2.0 0.00 0.00 0.00 84 1013.8
20260505113015 56 0.0 2.0 0.00 0.00 0.00 85 1013.6
20260505100017 55 0.0 3.0 0.00 0.00 0.00 86 1013.0
20260505093017 54 0.0 1.0 0.00 0.00 0.00 87 1012.8
20260505090017 54 0.0 1.0 0.00 0.00 0.00 87 1012.6
20260505083017 54 0.0 1.0 0.00 0.00 0.00 86 1012.4
20260505080017 55 0.0 1.0 0.00 0.00 0.00 85 1012.5
20260505073017 55 0.0 1.0 0.00 0.00 0.00 85 1012.2
20260505070017 56 0.0 1.0 0.00 0.00 0.00 84 1012.0